Home   Weather   Ojinaga   Past weeks
Flag for Mexico

Past Weather in Ojinaga, Chihuahua, Mexico — Yesterday and Last 2 Weeks

Now
55 °F

Clear.


Feels Like: 51 °F
Forecast: 80 / 56 °F
Wind: 15 mph from Northeast

Location: Marfa Municipal Airport

Current Time: Apr 3, 2020 at 9:09:19 pm

Latest Report: Apr 3, 2020 at 7:56 pm


Visibility: 10 mi

Pressure: 29.92 "Hg (27.23 "Hg at 788m altitude)

Humidity: 42%

Dew Point: 32 °F

Location of OjinagaLocation

Past Weather in Ojinaga — Graph

°F

Ojinaga Temperature Yesterday

Maximum temperature yesterday: 78 °F (at 4:56 pm)
Minimum temperature yesterday: 48 °F (at 11:56 pm)
Average temperature yesterday: 63 °F

High & Low Weather Summary for the Past Weeks

 TemperatureHumidityPressure
High85 °F (Mar 25, 2:56 pm)96% (Mar 22, 7:56 am)30.29 "Hg (Mar 22, 7:56 am)
Low33 °F (Mar 22, 6:56 am)7% (Mar 25, 11:56 am)29.77 "Hg (Apr 2, 4:56 pm)
Average59 °F37%30.00 "Hg
* Reported Mar 19 7:56 pm — Apr 3 7:56 pm, Ojinaga. Weather by CustomWeather, © 2020

Note: Actual official high and low records may vary slightly from our data, if they occured in-between our weather recording intervals... More about our weather records

Ojinaga Weather History for the Previous 24 Hours

Scroll right to see more
 ConditionsComfort  
Time TempWeatherWind HumidityBarometerVisibility
7:56 pm
Fri, Apr 3
55 °FClear.15 mph42%29.92 "Hg10 mi
6:56 pm58 °FSunny.14 mph38%29.92 "Hg10 mi
5:56 pm61 °FSunny.18 mph34%29.89 "Hg10 mi
4:56 pm64 °FSunny.21 mph30%29.87 "Hg10 mi
3:56 pm68 °FSunny.20 mph25%29.86 "Hg10 mi
2:56 pm70 °FSunny.15 mph23%29.85 "Hg10 mi
1:56 pm71 °FSunny.17 mph24%29.89 "Hg10 mi
12:56 pm70 °FSunny.17 mph25%29.92 "Hg10 mi
11:56 am72 °FSunny.17 mph23%29.94 "Hg10 mi
10:56 am71 °FSunny.13 mph21%29.96 "Hg10 mi
9:56 am69 °FSunny.12 mph21%29.97 "Hg10 mi
8:56 am67 °FSunny.5 mph22%29.94 "Hg10 mi
7:56 am53 °FSunny.No wind37%29.96 "Hg10 mi
6:56 am39 °FSunny.6 mph50%29.94 "Hg7 mi
5:56 am43 °FClear.6 mph42%29.90 "Hg10 mi
4:56 am45 °FClear.5 mph38%29.86 "Hg10 mi
3:56 am47 °FClear.8 mph37%29.87 "Hg10 mi
2:56 am51 °FClear.9 mph31%29.85 "Hg10 mi
1:56 am51 °FClear.7 mph31%29.85 "Hg10 mi
12:56 am51 °FClear.9 mph31%29.85 "Hg10 mi
11:56 pm
Thu, Apr 2
48 °FClear.7 mph32%29.86 "Hg10 mi
10:56 pm49 °FClear.3 mph29%29.86 "Hg10 mi
9:56 pm51 °FClear.8 mph27%29.85 "Hg10 mi
Weather by CustomWeather, © 2020

See weather overview

Advertising